FENGYUN 1C DEB, 30489

Orbit data source: Space-Track

FENGYUN 1C DEB, 30489 is space debris in SSO originally from a launch on Mon, 10 May 1999 UTC launched from the Taiyaun Space Center, China (TSC). Fengyun 1C debris stems from the Chinese weather satellite Fengyun-1C, which was intentionally destroyed by a Chinese anti-satellite missile in 2007. This event dramatically increased the amount of space debris, with thousands of trackable fragments posing hazards to satellites and human spaceflight. The Fengyun 1C debris cloud has become a focal point in discussions about space sustainability and the need for international regulations to prevent the creation of new debris.

Loading next visibility...
Identifier
30489, 1999-025AHB
Orbit
SSO
Country
Flag of CNCN / PRC
Related business
Manufacturer
Unknown
Mission
Spacecraft
Bus & Motor
Unknown
Mass
Unknown
Launch date (UTC)
1999-05-10 (27 years ago)
Launch vehicle
Unknown
Launch site
Taiyaun Space Center, China (TSC)
Object type
Payload
Rocket body
Debris
Shape & HBR
Unknown shape, 0.1 m
Radar Cross Section
Medium (>0.1 m² and <1 m²)

Expand to show TLE details & history
Last TLE update: 1 day ago

TLE from 1 day ago
0 FENGYUN 1C DEB
1 30489U 99025AHB 26207.00851755  .00000475  00000-0  23839-3 0  9991
2 30489  98.4610 215.8131 0139013 336.1144  49.9791 14.16067066  5746
Epoch: 2026-07-26T00:12Z
TLE epoch observation values (Epoch: 2026-07-26T00:12:15.916Z)
Latitude
27.04466°
Longitude
-95.29782°
Altitude
778.289 km
Speed
7.5 km/s
True Right ascension
14h 05m 55s
True Declination
26° 54' 22"
Sunlit
Object was in daylight at epoch
Visualization orbit readout
Latitude
Unknown
Longitude
Unknown
Altitude
Unknown
Speed
Unknown
Apparent Right ascension
Unknown
Apparent Declination
Unknown
Sunlit
N/A
Visualization observer readout
Local Sidereal Time
20:04:50
Azimuth
Unknown
Elevation
Unknown
Doppler factor
Unknown
Orbital elements
Apogee altitude
936.119 km
Perigee altitude
735.552 km
Semi-major axis
7,213.973 km
Eccentricity
0.0139
Inclination
98.461°
RAAN
215.8131°
Arg. of periapsis
336.1144°
True anomaly
51.2127°
Mean anomaly
49.9791°
Eccentric anomaly
50.59452°
Mean motion
3.54227 °/min
Orbital period
101.63 mins
BSTAR
0.00023839
Loading maneuver chart data...
Computing Atmospheric mass density...

Documentation

Showing up to 5 results
|